Simultaneous Nadir Overpasses (SNOs) Predictions

Prediction of SNOs between GOES-17 and LANDSAT-8 Satellite Orbit:

Table of predicted SNOs for the next 14.0 days since TLE Epoch: 7/27/2024
Index Date Time (GOES-17) GOES-17 Lat,Lon LANDSAT-8 Lat,Lon Distance(km) Time Diff (sec)
1 07/28/2024 17:09:39 0.01,-104.73 -0.00,-104.79 6.87 80
2 07/30/2024 16:57:27 0.01,-104.73 -0.60,-101.82 330.35 80
3 07/31/2024 05:21:31 -0.01,-104.70 -0.51,-107.01 263.03 80
4 08/02/2024 05:06:39 -0.01,-104.70 0.12,-104.05 73.85 80
5 08/04/2024 04:54:27 -0.01,-104.70 0.77,-101.08 411.17 80
6 08/04/2024 17:18:22 0.01,-104.73 0.34,-106.24 171.38 80
7 08/06/2024 17:03:30 0.01,-104.74 -0.33,-103.28 166.74 80
8 08/07/2024 05:27:32 -0.01,-104.71 -0.82,-108.46 425.98 80
9 08/09/2024 05:15:20 -0.01,-104.72 -0.18,-105.49 87.41 80
